Location: Borovka
(49.7741°N, 14.5280°E)
Time: 17:03:31
(UTC+00:00)

Thor Agena Rocket - Pass Details

Date: 17 February 2026
Orbit: 755 x 801 km, 99.1° (Epoch: 8 March)

Event Time Altitude Azimuth Distance (km) Brightness Sun altitude
Rises 04:04:05 0° 32° (NNE) 3,317 7.3 -20.7°
Reaches altitude 10° 04:07:57 10° 61° (ENE) 2,384 7.0 -20.1°
Maximum altitude 04:10:11 13° 86° (E) 2,200 7.0 -19.7°
Drops below altitude 10° 04:12:24 10° 111° (ESE) 2,378 7.0 -19.4°
Sets 04:16:14 0° 140° (SE) 3,300 7.3 -18.7°
